Home   Weather   Ancona   Past weeks

Flag for Italy Past Weather in Ancona, Italy — Yesterday and Last 2 Weeks

Now
52 °F

Clear.


Feels Like: 51 °F
Forecast: 61 / 66 °F
Wind: 5 mph from Southwest

Location: Falconara

Current Time: Apr 26, 2017 at 2:48:04 am

Latest Report: Apr 26, 2017 at 1:50 am


Visibility: 10 mi

Pressure: 29.89 "Hg

Humidity: 88%

Dew Point: 48 °F

Location of AnconaLocation

Past Weather in Ancona — Graph

°F

Ancona Temperature Yesterday

Maximum temperature yesterday: 70 °F (at 3:50 pm)
Minimum temperature yesterday: 48 °F (at 6:50 am)
Average temperature yesterday: 60 °F

High & Low Weather Summary for the Past Weeks

 TemperatureHumidityPressure
High72 °F (Apr 13, 10:50 am)100% (Apr 12, 2:50 am)30.42 "Hg (Apr 12, 2:50 am)
Low34 °F (Apr 22, 5:50 am)20% (Apr 22, 10:50 am)29.71 "Hg (Apr 18, 1:50 pm)
Average57 °F64%30.01 "Hg
* Reported Apr 11 12:50 am — Apr 26 12:50 am, Ancona, Weather by CustomWeather, © 2017

Note: Actual official high and low records may vary slightly from our data, if they occured in-between our weather recording intervals... More about our weather records

Advertising

Ancona Weather History for the Previous 24 Hours

Scroll right to see more
 ConditionsComfort  
Time TempWeatherWind HumidityBarometerVisibility
12:50 am
Wed, Apr 26
54 °FClear.3 mph82%29.89 "Hg10 mi
11:50 pm
Tue, Apr 25
55 °FClear.5 mph82%29.89 "Hg10 mi
10:50 pm59 °FPassing clouds.7 mph72%29.89 "HgN/A
9:50 pm57 °FClear.5 mph82%29.89 "Hg10 mi
8:50 pm59 °FPassing clouds.7 mph77%29.89 "HgN/A
7:50 pm61 °FPassing clouds.2 mph72%29.89 "HgN/A
6:50 pm63 °FScattered clouds.8 mph68%29.89 "HgN/A
5:50 pm66 °FScattered clouds.7 mph56%29.92 "HgN/A
4:50 pm70 °FPassing clouds.8 mph50%29.92 "HgN/A
3:50 pm70 °FPassing clouds.8 mph50%29.92 "HgN/A
2:50 pm68 °FPassing clouds.9 mph56%29.92 "HgN/A
1:50 pm66 °FSunny.12 mph64%29.95 "Hg10 mi
12:50 pm68 °FPassing clouds.8 mph43%29.95 "HgN/A
11:50 am64 °FSunny.9 mph60%29.98 "Hg10 mi
10:50 am63 °FSunny.9 mph73%29.98 "Hg10 mi
9:50 am63 °FPassing clouds.6 mph64%29.98 "HgN/A
8:50 am61 °FPassing clouds.6 mph72%29.98 "HgN/A
7:50 am59 °FSunny.2 mph77%29.98 "Hg10 mi
6:50 am48 °FSunny.2 mph82%29.98 "Hg10 mi
5:50 am50 °FClear.3 mph76%29.98 "Hg10 mi
4:50 am52 °FClear.6 mph77%29.98 "Hg10 mi
3:50 am54 °FClear.5 mph72%29.98 "Hg10 mi
Weather by CustomWeather, © 2017

See weather overviewHow to use our weather pages